TimeCST,TemperatureF,Dew PointF,Humidity,Sea Level PressureIn,VisibilityMPH,Wind Direction,Wind SpeedMPH,Gust SpeedMPH,PrecipitationIn,Events,Conditions,WindDirDegrees,DateUTC
12:54 AM,23.0,19.9,88,30.51,10.0,Calm,Calm,-,N/A,,Clear,0,2013-01-18 06:54:00
1:54 AM,23.0,19.9,88,30.51,10.0,Calm,Calm,-,N/A,,Clear,0,2013-01-18 07:54:00
2:54 AM,21.9,19.0,89,30.50,10.0,Calm,Calm,-,N/A,,Clear,0,2013-01-18 08:54:00
3:54 AM,21.9,19.0,89,30.50,10.0,Calm,Calm,-,N/A,,Clear,0,2013-01-18 09:54:00
4:54 AM,21.0,19.9,96,30.49,10.0,Calm,Calm,-,N/A,,Clear,0,2013-01-18 10:54:00
5:54 AM,21.9,19.9,92,30.48,10.0,SSE,3.5,-,N/A,,Clear,150,2013-01-18 11:54:00
6:54 AM,24.1,19.0,81,30.48,10.0,SW,4.6,-,N/A,,Clear,230,2013-01-18 12:54:00
7:54 AM,26.1,21.0,81,30.48,10.0,South,4.6,-,N/A,,Clear,190,2013-01-18 13:54:00
8:54 AM,30.9,24.1,76,30.46,10.0,South,8.1,-,N/A,,Clear,180,2013-01-18 14:54:00
9:54 AM,35.1,24.1,64,30.44,10.0,South,11.5,-,N/A,,Clear,190,2013-01-18 15:54:00
10:54 AM,39.9,25.0,55,30.40,10.0,South,10.4,-,N/A,,Clear,190,2013-01-18 16:54:00
11:54 AM,44.1,27.0,51,30.35,10.0,SSW,16.1,-,N/A,,Clear,200,2013-01-18 17:54:00
12:54 PM,46.9,28.9,50,30.30,10.0,South,12.7,-,N/A,,Clear,190,2013-01-18 18:54:00
1:54 PM,50.0,28.0,43,30.25,10.0,South,16.1,-,N/A,,Clear,190,2013-01-18 19:54:00
2:54 PM,52.0,28.0,40,30.21,10.0,South,13.8,-,N/A,,Clear,190,2013-01-18 20:54:00
3:54 PM,51.1,30.0,44,30.19,10.0,South,11.5,-,N/A,,Clear,190,2013-01-18 21:54:00
4:54 PM,46.0,28.9,51,30.17,10.0,South,11.5,-,N/A,,Clear,180,2013-01-18 22:54:00
5:54 PM,43.0,26.1,51,30.17,10.0,South,11.5,-,N/A,,Clear,170,2013-01-18 23:54:00
6:54 PM,43.0,26.1,51,30.17,10.0,South,10.4,-,N/A,,Clear,180,2013-01-19 00:54:00
7:54 PM,39.9,26.1,58,30.16,10.0,South,10.4,-,N/A,,Clear,180,2013-01-19 01:54:00
8:54 PM,39.0,27.0,62,30.14,10.0,South,11.5,-,N/A,,Clear,180,2013-01-19 02:54:00
9:54 PM,39.9,27.0,60,30.14,10.0,South,8.1,-,N/A,,Clear,180,2013-01-19 03:54:00
10:54 PM,34.0,26.1,73,30.15,10.0,South,8.1,-,N/A,,Clear,180,2013-01-19 04:54:00
11:54 PM,32.0,26.1,79,30.13,10.0,Calm,Calm,-,N/A,,Clear,0,2013-01-19 05:54:00